Terug naar catalogus

STARLINK-36382

ActiefCommunicatieSSO
NORAD 67807·PAYLOAD·🇺🇸 United States

Gelanceerd Feb 15, 2026 vanaf Vandenberg Space Force Base

Loading…

Volgende Passages (komende 24 uur)

TLE

VersSource: CelesTrak SupGP

Epoch: Sep 14, 2026, 22:34 UTC

1 67807C 26032L   26257.94076389  .00075636  00000+0  23481-2 0  2572
2 67807  97.2855  84.4072 0001630  93.1969 213.5553 15.33398601    12

Volg STARLINK-36382 in realtime met AllMySat

Download on the App Store